sat.trackr.live / text

‹ back to catalog

CAPELLA-11 (ACADIA-1)

NORAD 57693 · 2023-126A

PAYLOAD ACTIVE UNKNOWN

§ Identity

Operator
Country
US
Launch date
2023-08-23
Launch site
RLLB
Launch vehicle
Mass (kg)
RCS (m²)

External: N2YO · Heavens-Above · Gunter

§ Orbital elements

Epoch: 2026-09-21T06:48:37.055808Z

Period
96.74 min
Inclination
53.0076°
Eccentricity
0.0001643
Mean motion
14.88480005 rev/d
Perigee alt
601.5 km
Apogee alt
603.8 km
Semi-major
6,980.8 km
B*
3.4179e-4
RAAN
126.5018°
Arg perigee
73.6995°
Mean anomaly
286.4166°
Rev number
16,641

§ Raw data

CAPELLA-11 (ACADIA-1)1 57693U 23126A   26264.28376222  .00002968  00000+0  34179-3 0  99972 57693  53.0076 126.5018 0001643  73.6995 286.4166 14.88480005166418

JSON: /api/v1/satellites/57693 · /tle

For live sub-satellite position, see the globe view (requires WebGL).

§ Visibility from observer

Set your observer location to see the next 7 days of passes ≥ 10°. The values pass through the URL so the page stays shareable.

No JS? Fill the form by hand. The geolocation button needs JavaScript.